User: anonymous   Login
Location: Unspecified
(0.0000°N, 0.0000°E)
Time: 14:45:15
(UTC+00:00)
Language:

Sapphire - Orbit

View from above orbital plane
View from above orbital plane
View from above satellite
View from above satellite

Ground track
Ground track

The orbit data is extracted from the following two-line orbital elements,

1 26932U 01043D   17202.90134969 -.00000064 +00000-0 +73622-5 0  9999
2 26932 067.0567 004.0119 0009128 263.8267 096.1795 14.30253478825261
Epoch (UTC): 21 July 2017 21:37:56
Eccentricity: 0.0009128
inclination: 67.0567°
perigee height: 784 km
apogee height: 797 km
right ascension of ascending node: 4.0119°
argument of perigee: 263.8267°
revolutions per day: 14.30253478
mean anomaly at epoch: 96.1795°
orbit number at epoch: 82526

The dashed part of the orbit path shows where the satellite is in the earth's shadow,  

DLR